FW7889 Weather Reports


time (UTC)temp
F
wind
direction
speed
knots
gust
knots
rain 1hr
in
rain 24hr
in
rain mn
in
humidity
%
barometer
mb
20260904224742 67 286 0.0 0.0 0.00 0.00 0.00 87 1067.0
20260904223737 67 292 0.0 0.0 0.00 0.00 0.00 87 1067.1
20260904222734 67 305 0.9 0.9 0.00 0.00 0.00 87 1067.1
20260904221735 67 301 0.9 0.9 0.00 0.00 0.00 86 1067.4
20260904220730 68 313 0.9 1.7 0.00 0.00 0.00 85 1067.1
20260904215731 68 326 1.7 1.7 0.00 0.00 0.00 84 1067.2
20260904214727 68 333 1.7 1.7 0.00 0.00 0.00 83 1067.2
20260904213727 69 300 1.7 1.7 0.00 0.00 0.00 81 1067.2
20260904212724 69 333 2.6 4.3 0.00 0.00 0.00 80 1067.3
20260904211725 69 299 0.9 0.9 0.00 0.00 0.00 81 1067.3
20260904210720 69 311 0.9 1.7 0.00 0.00 0.00 79 1067.2
20260904205717 69 355 2.6 2.6 0.00 0.00 0.00 77 1067.1
20260904204715 70 334 2.6 2.6 0.00 0.00 0.00 77 1067.3
20260904203713 70 285 1.7 2.6 0.00 0.00 0.00 77 1067.3
20260904202710 71 319 1.7 1.7 0.00 0.00 0.00 74 1067.3
20260904201707 71 326 1.7 1.7 0.00 0.00 0.00 75 1067.4
20260904200708 71 273 0.0 0.9 0.00 0.00 0.00 75 1067.5
20260904195707 71 331 1.7 1.7 0.00 0.00 0.00 73 1067.5
20260904194707 73 42 2.6 2.6 0.00 0.00 0.00 68 1067.5
20260904193703 72 318 1.7 1.7 0.00 0.00 0.00 70 1067.5
20260904192658 71 313 1.7 1.7 0.00 0.00 0.00 68 1067.5
20260904191656 71 323 2.6 2.6 0.00 0.00 0.00 69 1067.4
20260904190654 72 320 1.7 2.6 0.00 0.00 0.00 70 1067.2
20260904185653 71 299 0.9 1.7 0.00 0.00 0.00 73 1067.6
20260904184651 73 340 1.7 1.7 0.00 0.00 0.00 71 1067.5
20260904183649 73 316 2.6 4.3 0.00 0.00 0.00 66 1067.7
20260904182644 73 326 2.6 2.6 0.00 0.00 0.00 70 1067.9
20260904181641 74 324 0.9 1.7 0.00 0.00 0.00 69 1067.9
20260904180636 74 337 3.5 4.3 0.00 0.00 0.00 68 1067.8
20260904175636 72 304 0.9 1.7 0.00 0.00 0.00 70 1068.1
20260904174635 73 327 4.3 5.2 0.00 0.00 0.00 67 1067.9
20260904173632 73 326 1.7 1.7 0.00 0.00 0.00 70 1067.9
20260904172630 71 315 0.9 1.7 0.00 0.00 0.00 69 1068.1
20260904171630 71 307 0.0 0.9 0.00 0.00 0.00 74 1068.3
20260904170627 71 325 1.7 1.7 0.00 0.00 0.00 72 1068.2
20260904165627 71 342 1.7 2.6 0.00 0.00 0.00 75 1068.3
20260904164627 71 47 1.7 1.7 0.00 0.00 0.00 75 1068.1
20260904163624 71 324 1.7 2.6 0.00 0.00 0.00 74 1068.4
20260904162619 71 331 2.6 2.6 0.00 0.00 0.00 72 1068.3
20260904161615 70 305 0.9 0.9 0.00 0.00 0.00 78 1068.7
20260904160612 71 318 1.7 1.7 0.00 0.00 0.00 74 1068.3
20260904155607 70 72 2.6 2.6 0.00 0.00 0.00 77 1068.3
20260904154607 70 41 1.7 2.6 0.00 0.00 0.00 75 1068.4
20260904153608 70 294 0.9 0.9 0.00 0.00 0.00 77 1068.5
20260904152605 70 324 3.5 5.2 0.00 0.00 0.00 76 1068.5
20260904151601 69 131 1.7 2.6 0.00 0.00 0.00 80 1068.7
20260904150601 68 324 2.6 2.6 0.00 0.00 0.00 82 1068.9
20260904145600 68 336 1.7 4.3 0.00 0.00 0.00 84 1068.8
20260904144557 68 316 0.9 1.7 0.00 0.00 0.00 85 1068.8
20260904143555 68 326 1.7 1.7 0.00 0.00 0.00 86 1069.1
20260904142553 68 336 0.9 0.9 0.00 0.00 0.00 85 1069.0
20260904141549 68 338 0.0 0.0 0.00 0.00 0.00 88 1069.0
20260904140545 66 310 1.7 1.7 0.00 0.00 0.00 89 1068.8
20260904135544 65 292 0.0 0.0 0.00 0.00 0.00 93 1069.0
20260904134542 64 304 1.7 1.7 0.00 0.00 0.00 99 1068.5
20260904133537 63 323 0.9 0.9 0.00 0.00 0.00 99 1068.9
20260904132533 63 291 0.0 0.0 0.00 0.00 0.00 99 1068.7
20260904131533 63 293 0.0 0.9 0.00 0.00 0.00 99 1068.8
20260904130528 62 158 0.9 0.9 0.00 0.00 0.00 99 1068.8
20260904125525 62 86 0.9 0.9 0.00 0.00 0.00 99 1068.9
20260904124521 61 250 0.0 0.0 0.00 0.00 0.00 99 1069.0
20260904123516 61 277 0.0 0.0 0.00 0.00 0.00 99 1069.1
20260904122513 60 277 0.0 0.0 0.00 0.00 0.00 99 1068.8
20260904121509 60 291 0.0 0.0 0.00 0.00 0.00 99 1068.8
20260904120506 58 288 0.0 0.0 0.00 0.00 0.00 99 1068.9
20260904115503 57 288 0.0 0.0 0.00 0.00 0.00 99 1068.9
20260904114503 56 288 0.0 0.0 0.00 0.00 0.00 99 1068.7
20260904113504 55 288 0.0 0.0 0.00 0.00 0.00 99 1068.8
20260904112459 55 289 0.0 0.0 0.00 0.00 0.00 99 1068.9
20260904111456 54 288 0.0 0.0 0.00 0.00 0.00 99 1068.8
20260904110451 53 288 0.0 0.0 0.00 0.00 0.00 99 1068.7
20260904105447 53 288 0.0 0.0 0.00 0.00 0.00 99 1068.4
20260904104441 52 288 0.0 0.0 0.00 0.00 0.00 99 1068.2
20260904103439 52 298 0.0 0.0 0.00 0.00 0.00 99 1068.3
20260904102437 52 288 0.0 0.0 0.00 0.00 0.00 99 1068.1
20260904101435 51 289 0.0 0.0 0.00 0.00 0.00 99 1068.1
20260904100432 51 291 0.0 0.0 0.00 0.00 0.00 99 1068.1
20260904095432 52 288 0.0 0.0 0.00 0.00 0.00 99 1068.0
20260904094428 52 288 0.0 0.0 0.00 0.00 0.00 99 1067.9
20260904093425 52 302 0.0 0.0 0.00 0.00 0.00 99 1067.9
20260904092423 52 289 0.0 0.0 0.00 0.00 0.00 99 1067.7
20260904091420 52 288 0.0 0.0 0.00 0.00 0.00 99 1067.6
20260904090417 52 289 0.0 0.0 0.00 0.00 0.00 99 1067.4
20260904085412 52 288 0.0 0.0 0.00 0.00 0.00 99 1067.7
20260904084409 52 288 0.0 0.0 0.00 0.00 0.00 99 1067.6
20260904083406 53 285 0.0 0.0 0.00 0.00 0.00 99 1067.6
20260904082402 53 281 0.0 0.0 0.00 0.00 0.00 99 1067.2
20260904081358 53 291 0.0 0.0 0.00 0.00 0.00 99 1067.1
20260904080355 53 288 0.0 0.0 0.00 0.00 0.00 99 1067.1
20260904075352 53 289 0.0 0.0 0.00 0.00 0.00 99 1067.2
20260904074351 53 288 0.0 0.0 0.00 0.00 0.00 99 1067.4
20260904073348 54 288 0.0 0.0 0.00 0.00 0.00 99 1067.2
20260904072344 54 288 0.0 0.0 0.00 0.00 0.00 99 1067.2
20260904071341 54 293 0.0 0.0 0.00 0.00 0.00 99 1066.9
20260904070340 54 293 0.0 0.0 0.00 0.00 0.00 99 1067.0
20260904065337 54 292 0.0 0.0 0.00 0.00 0.00 99 1067.1
20260904064334 54 293 0.0 0.0 0.00 0.00 0.00 99 1067.2
20260904063331 54 293 0.0 0.0 0.00 0.00 0.00 99 1067.3
20260904062328 54 289 0.0 0.0 0.00 0.00 0.00 99 1067.4
20260904061325 54 291 0.0 0.0 0.00 0.00 0.00 99 1067.8
20260904060322 54 291 0.0 0.0 0.00 0.00 0.00 99 1067.8
20260904055319 55 291 0.0 0.0 0.00 0.00 0.00 99 1067.6
20260904054316 55 298 0.0 0.0 0.00 0.00 0.00 99 1067.8
20260904053316 55 289 0.0 0.0 0.00 0.00 0.00 99 1067.8
20260904052315 55 289 0.0 0.0 0.00 0.00 0.00 99 1067.7
20260904051312 56 288 0.0 0.0 0.00 0.00 0.00 99 1068.0
20260904050310 56 289 0.0 0.0 0.00 0.00 0.00 99 1067.9
20260904045311 56 288 0.0 0.0 0.00 0.00 0.00 99 1067.8
20260904044308 56 289 0.0 0.0 0.00 0.00 0.00 99 1067.6
20260904043306 56 293 0.0 0.0 0.00 0.00 0.00 99 1067.8
20260904042305 57 293 0.0 0.0 0.00 0.00 0.00 99 1067.7
20260904041258 57 293 0.0 0.0 0.00 0.00 0.00 99 1068.0
20260904040255 57 291 0.0 0.0 0.00 0.00 0.00 99 1068.0
20260904035252 57 289 0.0 0.0 0.00 0.00 0.00 99 1068.0
20260904034247 57 289 0.0 0.0 0.00 0.00 0.00 99 1068.1
20260904033245 57 288 0.0 0.0 0.00 0.00 0.00 99 1068.0
20260904032246 58 293 0.0 0.0 0.00 0.00 0.00 99 1068.0
20260904031242 58 289 0.0 0.0 0.00 0.00 0.00 99 1068.0
20260904030239 58 288 0.0 0.0 0.00 0.00 0.00 99 1068.0
20260904025236 59 288 0.0 0.0 0.00 0.00 0.00 99 1067.9
20260904024232 59 288 0.0 0.0 0.00 0.00 0.00 99 1067.9
20260904023231 59 296 0.0 0.0 0.00 0.00 0.00 99 1067.9
20260904022227 59 288 0.0 0.0 0.00 0.00 0.00 99 1068.0
20260904021223 60 288 0.0 0.0 0.00 0.00 0.00 99 1068.2
20260904020218 60 289 0.0 0.0 0.00 0.00 0.00 99 1068.0
20260904015218 60 290 0.0 0.0 0.00 0.00 0.00 99 1068.2
20260904014218 60 303 0.9 0.9 0.00 0.00 0.00 99 1068.3
20260904013216 61 289 0.0 0.0 0.00 0.00 0.00 99 1068.4
20260904012216 61 289 0.0 0.0 0.00 0.00 0.00 99 1068.4
20260904011212 62 283 0.0 0.0 0.00 0.00 0.00 99 1068.4
20260904010209 62 290 0.0 0.0 0.00 0.00 0.00 99 1068.5
20260904005206 62 288 0.0 0.0 0.00 0.00 0.00 99 1068.3
20260904004207 62 293 0.0 0.0 0.00 0.00 0.00 99 1068.3
20260904003204 63 275 0.0 0.0 0.00 0.00 0.00 99 1068.0
20260904002201 63 289 0.0 0.0 0.00 0.00 0.00 99 1068.0
20260904001201 64 281 0.0 0.0 0.00 0.00 0.00 99 1068.0
20260904000158 64 280 0.0 0.0 0.00 0.00 0.00 99 1068.0
20260903235154 65 284 0.0 0.0 0.00 0.00 0.00 99 1068.0
20260903234150 65 275 0.0 0.0 0.00 0.00 0.00 99 1067.8
20260903233148 66 280 0.0 0.0 0.00 0.00 0.00 98 1067.6
20260903232143 67 287 0.0 0.0 0.00 0.00 0.00 95 1067.5
20260903231142 67 276 0.0 0.0 0.00 0.00 0.00 92 1067.3
20260903230137 68 280 0.0 0.0 0.00 0.00 0.00 94 1067.6